Uosat F - Orbit

View from above orbital plane
View from above orbital plane
View from above satellite
View from above satellite

Ground track
Ground track

The orbit data is extracted from the following two-line orbital elements,

1 21575U 91050B   13168.81700211  .00000069  00000-0  36278-4 0  7470
2 21575 098.6477 135.2299 0006573 337.4426 080.9274 14.40141426151031
Epoch (UTC): 17 June 2013 19:36:28
Eccentricity: 0.0006573
inclination: 98.6477°
perigee height: 753 km
apogee height: 763 km
right ascension of ascending node: 135.2299°
argument of perigee: 337.4426°
revolutions per day: 14.40141426
mean anomaly at epoch: 80.9274°
orbit number at epoch: 15103

The dashed part of the orbit path shows where the satellite is in the earth's shadow,  

Developed and maintained by Chris Peat, Heavens-Above GmbH. Please read the updated FAQ before sending e-mail. Imprint. DLR